contact:dominique.lefevre@mio.osupytheas.fr, maurice.libes@osupytheas.fr, didier.mallarino@osupytheas.fr
Project:EMSO http://www.emso-fr.org/EMSO-France
Depth: 2436.0 m
Title:EMSO Ligure Ouest : Data MII capteur AQUADOPP
Date,Latitude,Longitude,X_East,Y_North,Z_Up,Amplitude_X,Amplitude_Y,Amplitude_Z,Batterie,SoundSpeed,Heading,Pitch,Roll,Pressure,TIS,Speed,Direction
, degrees North, degrees East, m.s-1, m.s-1,m.s-1, 1, 1, 1, Volt, m.s-1, degree, degree, degree, dbar, degree_C, m.s-1, degree
2023-06-10T00:04:03,42.805,6.029,0.023,0.004,-0.003,103.0,103.0,100.0,13.4,1505.2,333.4,-0.8,1.8,2471.633,13.28,0.023,80.1
2023-06-10T00:07:03,42.805,6.029,0.026,-0.003,-0.011,103.0,102.0,102.0,13.3,1505.2,342.7,-0.8,1.8,2471.591,13.28,0.026,96.6
2023-06-10T00:10:03,42.805,6.029,0.029,0.0,0.013,103.0,103.0,102.0,13.3,1505.2,347.3,-0.7,1.8,2471.565,13.29,0.028,90.0
2023-06-10T00:13:03,42.805,6.029,0.024,0.003,-0.009,104.0,102.0,101.0,13.4,1505.2,320.1,-0.8,1.8,2471.581,13.29,0.024,82.9
2023-06-10T00:16:03,42.805,6.029,-0.006,0.006,-0.066,104.0,105.0,101.0,13.4,1505.2,337.7,-0.7,1.8,2471.583,13.29,0.008,315.0
2023-06-10T00:19:03,42.805,6.029,0.046,0.001,-0.003,103.0,103.0,102.0,13.4,1505.2,330.2,-0.8,1.8,2471.551,13.29,0.046,88.8
2023-06-10T00:22:03,42.805,6.029,0.011,0.007,-0.018,104.0,103.0,102.0,13.4,1505.2,326.5,-0.8,1.8,2471.557,13.29,0.013,57.5
2023-06-10T00:25:03,42.805,6.029,0.022,-0.002,-0.011,104.0,104.0,101.0,13.4,1505.2,337.9,-0.8,1.8,2471.563,13.29,0.022,95.2
2023-06-10T00:28:03,42.805,6.029,0.031,0.0,0.005,103.0,103.0,102.0,13.4,1505.2,331.4,-0.8,1.8,2471.526,13.29,0.03,90.0
2023-06-10T00:31:03,42.805,6.029,0.034,0.0,0.02,102.0,104.0,102.0,13.4,1505.2,337.1,-0.8,1.8,2471.531,13.29,0.034,90.0
2023-06-10T00:34:03,42.805,6.029,0.025,-0.006,-0.02,103.0,103.0,101.0,13.4,1505.2,345.9,-0.7,1.8,2471.546,13.29,0.025,103.5
2023-06-10T00:37:03,42.805,6.029,0.027,-0.014,-0.009,103.0,103.0,101.0,13.4,1505.2,337.1,-0.8,1.8,2471.521,13.29,0.03,117.4
2023-06-10T00:40:03,42.805,6.029,0.026,0.009,-0.004,103.0,103.0,102.0,13.4,1505.2,321.7,-0.8,1.8,2471.511,13.29,0.027,70.9
2023-06-10T00:43:03,42.805,6.029,0.025,0.002,0.014,101.0,103.0,101.0,13.4,1505.2,332.5,-0.8,1.8,2471.572,13.29,0.025,85.4
2023-06-10T00:46:03,42.805,6.029,0.029,0.004,-0.003,103.0,103.0,102.0,13.3,1505.2,326.3,-0.8,1.8,2471.528,13.29,0.029,82.2
2023-06-10T00:49:03,42.805,6.029,0.038,-0.009,-0.007,103.0,104.0,101.0,13.4,1505.2,340.2,-0.7,1.8,2471.534,13.29,0.039,103.3
2023-06-10T00:52:03,42.805,6.029,0.038,0.016,0.006,103.0,103.0,101.0,13.4,1505.2,327.3,-0.7,1.8,2471.516,13.29,0.041,67.2
2023-06-10T00:55:03,42.805,6.029,0.021,0.007,0.012,102.0,103.0,102.0,13.4,1505.2,332.9,-0.8,1.8,2471.547,13.29,0.022,71.6
2023-06-10T00:58:03,42.805,6.029,0.024,-0.013,-0.014,103.0,102.0,102.0,13.4,1505.2,352.0,-0.8,1.8,2471.551,13.29,0.027,118.4
2023-06-10T01:04:02,42.805,6.029,0.009,0.002,0.027,104.0,104.0,104.0,13.3,1505.2,322.5,-0.8,1.8,2471.54,13.28,0.009,77.5
2023-06-10T01:07:03,42.805,6.029,0.028,0.01,-0.009,103.0,103.0,102.0,13.3,1505.2,320.7,-0.8,1.8,2471.54,13.28,0.029,70.4
2023-06-10T01:10:03,42.805,6.029,0.027,0.025,0.036,103.0,103.0,102.0,13.4,1505.2,322.9,-0.8,1.8,2471.541,13.29,0.036,47.2
2023-06-10T01:13:03,42.805,6.029,0.038,-0.003,-0.009,102.0,105.0,101.0,13.4,1505.2,341.5,-0.7,1.9,2471.593,13.29,0.038,94.5
2023-06-10T01:16:03,42.805,6.029,0.024,-0.009,0.018,104.0,103.0,101.0,13.4,1505.2,344.8,-0.8,1.8,2471.503,13.29,0.025,110.6
2023-06-10T01:19:03,42.805,6.029,0.025,0.009,0.03,103.0,104.0,100.0,13.4,1505.2,345.6,-0.7,1.8,2471.543,13.29,0.026,70.2
2023-06-10T01:22:02,42.805,6.029,0.007,0.025,0.01,104.0,104.0,101.0,13.4,1505.2,320.0,-0.8,1.8,2471.531,13.29,0.025,15.6
2023-06-10T01:25:03,42.805,6.029,0.039,0.013,-0.009,103.0,104.0,101.0,13.4,1505.2,324.9,-0.8,1.8,2471.521,13.29,0.041,71.6
2023-06-10T01:28:03,42.805,6.029,0.05,-0.009,0.014,103.0,104.0,100.0,13.4,1505.2,340.1,-0.8,1.8,2471.525,13.29,0.05,100.2
2023-06-10T01:31:03,42.805,6.029,0.039,0.008,0.019,104.0,103.0,101.0,13.4,1505.2,340.1,-0.8,1.8,2471.511,13.29,0.039,78.4
2023-06-10T01:34:03,42.805,6.029,0.01,-0.006,-0.005,103.0,104.0,101.0,13.3,1505.2,340.9,-0.8,1.8,2471.529,13.29,0.011,121.0
2023-06-10T01:37:03,42.805,6.029,0.038,0.014,-0.002,102.0,102.0,101.0,13.3,1505.2,332.5,-0.8,1.8,2471.515,13.29,0.04,69.8
2023-06-10T01:40:03,42.805,6.029,0.042,-0.006,0.011,104.0,103.0,101.0,13.4,1505.2,322.3,-0.8,1.8,2471.515,13.29,0.042,98.1
2023-06-10T01:43:03,42.805,6.029,0.012,0.003,-0.012,103.0,104.0,101.0,13.4,1505.2,339.8,-0.7,1.8,2471.483,13.29,0.012,76.0
2023-06-10T01:46:03,42.805,6.029,0.035,-0.01,0.001,101.0,103.0,102.0,13.3,1505.2,329.5,-0.7,1.8,2471.49,13.29,0.036,105.9
2023-06-10T01:49:03,42.805,6.029,0.04,-0.021,-0.011,103.0,103.0,101.0,13.3,1505.2,333.9,-0.8,1.8,2471.485,13.29,0.045,117.7
2023-06-10T01:52:03,42.805,6.029,0.026,-0.029,-0.02,105.0,102.0,102.0,13.4,1505.2,347.5,-0.7,1.8,2471.487,13.29,0.038,138.1
2023-06-10T01:55:03,42.805,6.029,0.031,0.01,0.013,103.0,104.0,101.0,13.3,1505.2,334.6,-0.8,1.8,2471.518,13.29,0.032,72.1
2023-06-10T01:58:03,42.805,6.029,0.024,0.018,-0.012,103.0,103.0,101.0,13.3,1505.2,323.5,-0.7,1.8,2471.485,13.29,0.03,53.1
2023-06-10T02:04:03,42.805,6.029,0.028,0.005,-0.02,103.0,103.0,101.0,13.4,1505.2,337.5,-0.7,1.8,2471.547,13.28,0.028,79.9
2023-06-10T02:07:03,42.805,6.029,0.011,0.003,-0.014,103.0,104.0,101.0,13.3,1505.2,327.5,-0.7,1.8,2471.575,13.28,0.011,74.7
2023-06-10T02:10:03,42.805,6.029,0.036,-0.011,-0.013,103.0,103.0,102.0,13.4,1505.2,341.5,-0.7,1.8,2471.518,13.29,0.037,107.0
2023-06-10T02:13:03,42.805,6.029,0.032,0.009,-0.021,103.0,104.0,101.0,13.4,1505.2,323.3,-0.7,1.8,2471.553,13.29,0.033,74.3
2023-06-10T02:16:03,42.805,6.029,0.031,0.002,-0.01,102.0,104.0,101.0,13.4,1505.2,340.1,-0.8,1.8,2471.496,13.29,0.031,86.3
2023-06-10T02:19:03,42.805,6.029,0.029,-0.001,-0.022,103.0,104.0,101.0,13.4,1505.2,331.3,-0.8,1.8,2471.51,13.29,0.029,92.0
2023-06-10T02:22:03,42.805,6.029,0.047,0.015,0.028,103.0,103.0,101.0,13.4,1505.2,328.7,-0.8,1.8,2471.517,13.29,0.049,72.3
2023-06-10T02:25:03,42.805,6.029,0.032,-0.011,-0.028,102.0,102.0,102.0,13.4,1505.2,349.3,-0.7,1.8,2471.532,13.29,0.033,109.0
2023-06-10T02:28:02,42.805,6.029,0.023,0.011,-0.001,103.0,102.0,102.0,13.4,1505.2,323.8,-0.8,1.8,2471.491,13.29,0.025,64.4
2023-06-10T02:31:03,42.805,6.029,0.035,0.0,0.018,103.0,103.0,102.0,13.4,1505.2,340.4,-0.7,1.8,2471.545,13.29,0.035,90.0
2023-06-10T02:34:03,42.805,6.029,0.038,-0.03,-0.037,103.0,104.0,102.0,13.3,1505.2,327.7,-0.7,1.8,2471.464,13.29,0.048,128.3
2023-06-10T02:37:03,42.805,6.029,0.028,0.016,0.001,102.0,105.0,101.0,13.3,1505.2,336.6,-0.8,1.8,2471.49,13.29,0.032,60.3
2023-06-10T02:40:03,42.805,6.029,0.023,-0.014,-0.005,103.0,103.0,101.0,13.4,1505.2,349.9,-0.8,1.8,2471.508,13.29,0.026,121.3
2023-06-10T02:43:03,42.805,6.029,0.039,0.007,0.015,102.0,104.0,102.0,13.4,1505.2,333.8,-0.8,1.8,2471.465,13.29,0.039,79.8
2023-06-10T02:46:03,42.805,6.029,0.022,0.01,-0.007,103.0,102.0,101.0,13.3,1505.2,322.9,-0.8,1.8,2471.451,13.29,0.024,65.6
2023-06-10T02:49:03,42.805,6.029,0.02,-0.009,0.002,103.0,103.0,101.0,13.3,1505.2,342.3,-0.8,1.8,2471.483,13.29,0.021,114.2
2023-06-10T02:52:03,42.805,6.029,0.057,-0.02,0.001,102.0,104.0,101.0,13.4,1505.2,328.4,-0.8,1.8,2471.502,13.29,0.06,109.3
2023-06-10T02:55:03,42.805,6.029,0.027,-0.006,-0.021,103.0,103.0,101.0,13.4,1505.2,348.6,-0.8,1.8,2471.467,13.29,0.027,102.5
2023-06-10T02:58:03,42.805,6.029,0.048,0.001,-0.011,102.0,104.0,102.0,13.4,1505.2,329.8,-0.7,1.9,2471.433,13.29,0.048,88.8
2023-06-10T03:04:03,42.805,6.029,0.04,-0.005,-0.003,103.0,102.0,102.0,13.3,1505.2,321.0,-0.8,1.8,2471.498,13.28,0.04,97.1
2023-06-10T03:07:03,42.805,6.029,0.022,0.002,0.003,103.0,104.0,101.0,13.3,1505.2,337.8,-0.8,1.8,2471.483,13.28,0.022,84.8
2023-06-10T03:10:03,42.805,6.029,0.048,-0.016,-0.011,103.0,103.0,102.0,13.3,1505.2,329.0,-0.8,1.8,2471.499,13.28,0.05,108.4
2023-06-10T03:13:03,42.805,6.029,0.02,-0.013,-0.003,103.0,105.0,102.0,13.3,1505.2,347.3,-0.8,1.8,2471.523,13.29,0.023,123.0
2023-06-10T03:16:03,42.805,6.029,0.015,0.004,-0.004,104.0,102.0,101.0,13.4,1505.2,336.6,-0.8,1.8,2471.511,13.29,0.015,75.1
2023-06-10T03:19:03,42.805,6.029,0.054,0.013,0.036,103.0,103.0,101.0,13.3,1505.2,334.4,-0.8,1.8,2471.508,13.29,0.055,76.5
2023-06-10T03:22:03,42.805,6.029,0.024,-0.006,-0.009,103.0,103.0,102.0,13.3,1505.2,345.3,-0.8,1.8,2471.455,13.29,0.024,104.0
2023-06-10T03:25:03,42.805,6.029,0.033,-0.002,-0.014,102.0,103.0,102.0,13.4,1505.2,337.4,-0.8,1.8,2471.491,13.29,0.033,93.5
2023-06-10T03:28:03,42.805,6.029,0.025,0.014,-0.01,103.0,103.0,101.0,13.3,1505.2,323.7,-0.7,1.8,2471.438,13.29,0.028,60.7
2023-06-10T03:31:03,42.805,6.029,0.032,-0.013,0.0,102.0,103.0,101.0,13.3,1505.2,329.0,-0.8,1.8,2471.466,13.29,0.034,112.1
2023-06-10T03:34:03,42.805,6.029,-0.001,0.0,-0.024,102.0,104.0,102.0,13.3,1505.2,338.2,-0.8,1.8,2471.454,13.29,0.001,270.0
2023-06-10T03:37:03,42.805,6.029,0.011,0.026,0.0,102.0,102.0,102.0,13.3,1505.2,322.9,-0.8,1.8,2471.476,13.29,0.028,22.9
2023-06-10T03:40:03,42.805,6.029,0.03,0.007,-0.011,102.0,102.0,102.0,13.4,1505.2,320.1,-0.8,1.8,2471.441,13.29,0.03,76.9
2023-06-10T03:43:03,42.805,6.029,0.042,-0.014,0.021,105.0,103.0,100.0,13.4,1505.2,330.9,-0.7,1.8,2471.435,13.29,0.044,108.4
2023-06-10T03:46:03,42.805,6.029,0.037,0.007,-0.015,104.0,103.0,101.0,13.4,1505.2,321.9,-0.7,1.9,2471.465,13.29,0.037,79.3
2023-06-10T03:49:03,42.805,6.029,0.026,-0.014,0.018,105.0,103.0,101.0,13.4,1505.2,336.8,-0.7,1.8,2471.438,13.29,0.029,118.3
2023-06-10T03:52:03,42.805,6.029,0.023,-0.013,-0.025,102.0,105.0,101.0,13.4,1505.2,337.1,-0.8,1.8,2471.452,13.29,0.026,119.5
2023-06-10T03:55:03,42.805,6.029,0.031,-0.035,0.0,103.0,103.0,102.0,13.4,1505.2,346.8,-0.8,1.8,2471.461,13.29,0.046,138.5
2023-06-10T03:58:03,42.805,6.029,0.054,-0.006,-0.035,103.0,103.0,102.0,13.4,1505.2,318.9,-0.8,1.8,2471.419,13.29,0.054,96.3
2023-06-10T04:04:03,42.805,6.029,0.027,-0.011,-0.031,102.0,104.0,102.0,13.4,1505.2,339.3,-0.7,1.8,2471.491,13.28,0.029,112.2
2023-06-10T04:07:03,42.805,6.029,0.021,-0.001,-0.02,104.0,102.0,102.0,13.3,1505.2,342.8,-0.7,1.8,2471.479,13.28,0.021,92.7
2023-06-10T04:10:03,42.805,6.029,0.044,-0.015,0.001,103.0,103.0,101.0,13.3,1505.2,339.3,-0.8,1.8,2471.466,13.28,0.046,108.8
2023-06-10T04:13:03,42.805,6.029,0.045,-0.024,0.024,102.0,104.0,100.0,13.3,1505.2,348.2,-0.8,1.8,2471.459,13.29,0.051,118.1
2023-06-10T04:16:03,42.805,6.029,0.035,-0.001,0.011,103.0,104.0,101.0,13.4,1505.2,322.7,-0.8,1.8,2471.439,13.29,0.035,91.6
2023-06-10T04:19:03,42.805,6.029,0.041,-0.018,-0.005,103.0,103.0,102.0,13.4,1505.2,342.2,-0.8,1.8,2471.446,13.29,0.044,113.7
2023-06-10T04:22:03,42.805,6.029,0.027,-0.005,0.023,103.0,103.0,102.0,13.4,1505.2,325.4,-0.8,1.8,2471.427,13.29,0.027,100.5
2023-06-10T04:25:03,42.805,6.029,0.021,-0.011,-0.002,103.0,103.0,101.0,13.4,1505.2,328.0,-0.8,1.8,2471.424,13.29,0.023,117.6
2023-06-10T04:28:03,42.805,6.029,0.033,-0.007,-0.026,103.0,104.0,101.0,13.3,1505.2,340.8,-0.8,1.8,2471.388,13.29,0.033,102.0
2023-06-10T04:31:03,42.805,6.029,0.035,-0.002,0.029,102.0,103.0,102.0,13.4,1505.2,326.8,-0.8,1.8,2471.42,13.29,0.035,93.3
2023-06-10T04:34:03,42.805,6.029,0.038,0.001,0.009,103.0,102.0,102.0,13.3,1505.2,329.0,-0.8,1.8,2471.377,13.29,0.038,88.5
2023-06-10T04:37:03,42.805,6.029,0.034,0.003,0.013,102.0,103.0,101.0,13.4,1505.2,331.6,-0.8,1.8,2471.408,13.29,0.034,85.0
2023-06-10T04:40:03,42.805,6.029,0.031,-0.024,-0.022,103.0,103.0,101.0,13.4,1505.2,334.4,-0.7,1.8,2471.389,13.29,0.039,127.7
2023-06-10T04:43:03,42.805,6.029,0.029,0.0,0.011,103.0,102.0,102.0,13.4,1505.2,342.5,-0.8,1.8,2471.409,13.29,0.028,90.0
2023-06-10T04:46:03,42.805,6.029,0.03,0.007,0.01,103.0,101.0,102.0,13.4,1505.2,330.3,-0.8,1.8,2471.374,13.29,0.03,76.9
2023-06-10T04:49:03,42.805,6.029,0.046,-0.026,-0.009,102.0,102.0,101.0,13.4,1505.2,328.2,-0.8,1.8,2471.387,13.29,0.052,119.5
2023-06-10T04:52:03,42.805,6.029,0.026,-0.009,0.006,102.0,102.0,102.0,13.4,1505.2,332.1,-0.8,1.8,2471.374,13.29,0.027,109.1
2023-06-10T04:55:03,42.805,6.029,0.031,0.005,0.012,101.0,104.0,102.0,13.3,1505.2,325.7,-0.8,1.8,2471.404,13.29,0.031,80.8
2023-06-10T04:58:03,42.805,6.029,0.038,-0.021,-0.009,102.0,103.0,101.0,13.3,1505.2,344.6,-0.7,1.8,2471.398,13.29,0.043,118.9
2023-06-10T05:04:03,42.805,6.029,0.036,-0.013,-0.022,102.0,102.0,101.0,13.4,1505.2,321.3,-0.8,1.8,2471.441,13.28,0.038,109.9
2023-06-10T05:07:03,42.805,6.029,0.022,-0.006,-0.004,103.0,101.0,101.0,13.3,1505.2,341.9,-0.7,1.8,2471.352,13.28,0.022,105.3
2023-06-10T05:10:03,42.805,6.029,0.042,0.011,0.003,102.0,103.0,101.0,13.4,1505.2,328.5,-0.8,1.8,2471.424,13.28,0.043,75.3
2023-06-10T05:13:03,42.805,6.029,0.05,0.003,0.013,102.0,103.0,102.0,13.3,1505.2,339.6,-0.7,1.8,2471.371,13.29,0.05,86.6
2023-06-10T05:16:03,42.805,6.029,0.039,-0.019,0.012,101.0,103.0,101.0,13.4,1505.2,344.2,-0.8,1.8,2471.428,13.29,0.043,116.0
2023-06-10T05:19:03,42.805,6.029,0.003,0.008,0.023,103.0,103.0,101.0,13.4,1505.2,322.5,-0.8,1.8,2471.369,13.29,0.008,20.6
2023-06-10T05:22:03,42.805,6.029,0.019,0.006,-0.002,102.0,102.0,101.0,13.4,1505.2,327.3,-0.8,1.8,2471.343,13.29,0.019,72.5
2023-06-10T05:25:03,42.805,6.029,0.006,0.018,-0.007,104.0,104.0,100.0,13.4,1505.2,340.4,-0.8,1.8,2471.374,13.29,0.018,18.4
2023-06-10T05:28:03,42.805,6.029,0.038,-0.039,-0.029,104.0,102.0,101.0,13.4,1505.2,343.5,-0.8,1.8,2471.361,13.29,0.054,135.7
2023-06-10T05:31:03,42.805,6.029,0.016,-0.001,0.016,102.0,102.0,102.0,13.3,1505.2,347.0,-0.8,1.8,2471.39,13.29,0.016,93.6
2023-06-10T05:34:03,42.805,6.029,0.023,-0.013,-0.014,102.0,103.0,102.0,13.4,1505.2,345.9,-0.8,1.8,2471.352,13.29,0.026,119.5
2023-06-10T05:37:03,42.805,6.029,0.032,0.003,-0.012,102.0,103.0,101.0,13.4,1505.2,320.0,-0.7,1.8,2471.34,13.29,0.032,84.6
2023-06-10T05:40:03,42.805,6.029,0.027,-0.009,-0.012,102.0,103.0,102.0,13.3,1505.2,331.9,-0.8,1.8,2471.375,13.29,0.028,108.4
2023-06-10T05:43:03,42.805,6.029,0.019,0.001,-0.023,101.0,103.0,101.0,13.4,1505.2,326.5,-0.8,1.8,2471.392,13.29,0.019,87.0
2023-06-10T05:46:03,42.805,6.029,0.035,-0.01,-0.021,102.0,102.0,102.0,13.4,1505.2,343.0,-0.7,1.8,2471.33,13.29,0.036,105.9
2023-06-10T05:49:03,42.805,6.029,0.024,-0.012,0.0,102.0,104.0,101.0,13.4,1505.2,347.5,-0.7,1.8,2471.357,13.29,0.026,116.6
2023-06-10T05:52:03,42.805,6.029,0.012,-0.002,-0.055,103.0,102.0,101.0,13.3,1505.2,320.0,-0.8,1.8,2471.355,13.29,0.012,99.5
2023-06-10T05:55:03,42.805,6.029,0.057,-0.001,0.001,101.0,103.0,101.0,13.3,1505.2,337.1,-0.8,1.8,2471.368,13.29,0.057,91.0
2023-06-10T05:58:03,42.805,6.029,0.031,0.0,-0.007,102.0,102.0,101.0,13.4,1505.2,333.0,-0.8,1.8,2471.337,13.29,0.03,90.0
2023-06-10T06:04:03,42.805,6.029,0.012,0.009,-0.013,102.0,103.0,101.0,13.4,1505.2,328.2,-0.8,1.8,2471.39,13.28,0.015,53.1
2023-06-10T06:07:03,42.805,6.029,0.012,-0.001,-0.022,102.0,103.0,102.0,13.4,1505.2,340.4,-0.7,1.8,2471.389,13.28,0.012,94.8
2023-06-10T06:10:03,42.805,6.029,0.024,-0.031,-0.023,103.0,103.0,101.0,13.4,1505.2,340.3,-0.8,1.8,2471.357,13.28,0.039,142.3
2023-06-10T06:13:03,42.805,6.029,-0.006,0.006,0.01,102.0,102.0,102.0,13.4,1505.2,318.9,-0.8,1.8,2471.359,13.28,0.008,315.0
2023-06-10T06:16:03,42.805,6.029,0.048,0.006,0.008,102.0,103.0,102.0,13.4,1505.2,326.8,-0.8,1.8,2471.362,13.29,0.048,82.9
2023-06-10T06:19:03,42.805,6.029,0.032,-0.006,-0.046,102.0,103.0,102.0,13.4,1505.2,344.2,-0.7,1.8,2471.298,13.29,0.032,100.6
2023-06-10T06:22:03,42.805,6.029,0.026,0.0,0.0,102.0,104.0,100.0,13.4,1505.2,337.4,-0.8,1.8,2471.342,13.29,0.026,90.0
2023-06-10T06:25:03,42.805,6.029,0.021,-0.002,-0.021,102.0,104.0,101.0,13.3,1505.2,319.8,-0.7,1.8,2471.35,13.29,0.021,95.4
2023-06-10T06:28:03,42.805,6.029,0.025,-0.01,-0.031,102.0,103.0,101.0,13.4,1505.2,339.7,-0.8,1.8,2471.342,13.29,0.026,111.8
2023-06-10T06:31:03,42.805,6.029,0.051,0.004,0.021,104.0,102.0,102.0,13.3,1505.2,342.5,-0.7,1.8,2471.336,13.29,0.051,85.5
2023-06-10T06:34:03,42.805,6.029,0.027,0.0,-0.028,102.0,102.0,101.0,13.4,1505.2,331.0,-0.8,1.8,2471.338,13.29,0.026,90.0
2023-06-10T06:37:03,42.805,6.029,0.059,-0.002,0.032,103.0,103.0,100.0,13.4,1505.2,342.2,-0.7,1.8,2471.357,13.29,0.059,91.9
2023-06-10T06:40:03,42.805,6.029,0.013,-0.007,-0.013,103.0,103.0,102.0,13.4,1505.2,321.9,-0.7,1.8,2471.336,13.29,0.014,118.3
2023-06-10T06:43:03,42.805,6.029,0.031,0.0,0.014,102.0,102.0,102.0,13.3,1505.2,336.0,-0.7,1.8,2471.343,13.29,0.03,90.0
2023-06-10T06:46:03,42.805,6.029,0.054,-0.01,0.004,102.0,102.0,101.0,13.4,1505.2,337.2,-0.8,1.8,2471.356,13.29,0.054,100.5
2023-06-10T06:49:03,42.805,6.029,0.028,0.001,-0.001,102.0,103.0,101.0,13.3,1505.2,344.2,-0.8,1.8,2471.363,13.29,0.028,88.0
2023-06-10T06:52:03,42.805,6.029,0.035,-0.038,0.003,102.0,102.0,101.0,13.4,1505.2,346.8,-0.8,1.8,2471.289,13.29,0.051,137.4
2023-06-10T06:55:03,42.805,6.029,0.02,0.011,-0.012,102.0,102.0,102.0,13.4,1505.2,319.8,-0.8,1.8,2471.327,13.29,0.022,61.2
2023-06-10T06:58:03,42.805,6.029,0.026,0.009,-0.01,102.0,102.0,101.0,13.4,1505.2,334.8,-0.8,1.8,2471.335,13.29,0.027,70.9
2023-06-10T07:04:03,42.805,6.029,0.03,0.02,0.025,102.0,103.0,101.0,13.4,1505.2,325.1,-0.8,1.8,2471.409,13.28,0.036,56.3
2023-06-10T07:07:03,42.805,6.029,0.007,0.005,-0.026,102.0,103.0,101.0,13.4,1505.2,345.9,-0.8,1.8,2471.366,13.28,0.008,54.5
2023-06-10T07:10:03,42.805,6.029,0.032,-0.003,0.008,102.0,103.0,101.0,13.4,1505.2,330.5,-0.8,1.8,2471.373,13.28,0.032,95.4
2023-06-10T07:13:03,42.805,6.029,0.03,0.003,-0.009,102.0,103.0,101.0,13.3,1505.2,323.5,-0.8,1.8,2471.336,13.28,0.03,84.3
2023-06-10T07:16:03,42.805,6.029,0.036,-0.016,0.016,103.0,103.0,101.0,13.4,1505.2,341.2,-0.7,1.8,2471.359,13.29,0.039,114.0
2023-06-10T07:19:03,42.805,6.029,0.043,0.001,-0.02,103.0,104.0,101.0,13.4,1505.2,334.9,-0.8,1.8,2471.345,13.29,0.043,88.7
2023-06-10T07:22:03,42.805,6.029,0.032,0.001,-0.007,103.0,103.0,101.0,13.4,1505.2,338.8,-0.7,1.8,2471.365,13.29,0.032,88.2
2023-06-10T07:25:03,42.805,6.029,0.032,0.006,0.006,103.0,103.0,101.0,13.4,1505.2,338.2,-0.8,1.8,2471.375,13.29,0.032,79.4
2023-06-10T07:28:03,42.805,6.029,0.037,-0.001,-0.004,103.0,103.0,101.0,13.4,1505.2,324.3,-0.8,1.8,2471.355,13.29,0.037,91.5
2023-06-10T07:31:03,42.805,6.029,0.042,-0.004,0.022,103.0,101.0,102.0,13.3,1505.2,350.5,-0.7,1.8,2471.352,13.29,0.042,95.4
2023-06-10T07:34:03,42.805,6.029,0.02,0.005,-0.021,103.0,106.0,100.0,13.4,1505.2,338.0,-0.8,1.8,2471.336,13.29,0.02,76.0
2023-06-10T07:37:03,42.805,6.029,0.035,-0.022,-0.015,103.0,102.0,101.0,13.4,1505.2,338.0,-0.8,1.8,2471.327,13.29,0.041,122.2
2023-06-10T07:40:03,42.805,6.029,0.031,0.0,0.047,102.0,105.0,101.0,13.4,1505.2,348.2,-0.8,1.8,2471.343,13.29,0.03,90.0
2023-06-10T07:43:03,42.805,6.029,0.035,-0.004,0.005,102.0,103.0,101.0,13.4,1505.2,342.1,-0.7,1.8,2471.313,13.29,0.035,96.5
2023-06-10T07:46:03,42.805,6.029,0.046,-0.02,-0.024,102.0,104.0,101.0,13.4,1505.2,331.3,-0.8,1.9,2471.348,13.29,0.05,113.5
2023-06-10T07:49:03,42.805,6.029,0.038,0.001,0.019,102.0,104.0,101.0,13.4,1505.2,327.8,-0.8,1.8,2471.347,13.29,0.038,88.5
2023-06-10T07:52:03,42.805,6.029,0.033,-0.005,0.002,103.0,103.0,100.0,13.4,1505.2,326.8,-0.8,1.8,2471.312,13.29,0.033,98.6
2023-06-10T07:55:03,42.805,6.029,-0.004,0.022,-0.044,102.0,102.0,101.0,13.4,1505.2,329.9,-0.8,1.8,2471.313,13.29,0.022,349.7
2023-06-10T07:58:03,42.805,6.029,0.049,-0.005,0.011,102.0,103.0,100.0,13.3,1505.2,341.5,-0.8,1.9,2471.33,13.29,0.049,95.8
2023-06-10T08:04:03,42.805,6.029,0.017,-0.025,-0.026,102.0,103.0,102.0,13.3,1505.2,348.2,-0.8,1.8,2471.38,13.28,0.03,145.8
2023-06-10T08:07:03,42.805,6.029,0.031,0.0,0.023,102.0,103.0,102.0,13.4,1505.2,319.8,-0.8,1.8,2471.384,13.28,0.03,90.0
2023-06-10T08:10:03,42.805,6.029,0.036,0.013,0.013,104.0,103.0,101.0,13.3,1505.2,329.0,-0.8,1.8,2471.352,13.28,0.038,70.1
2023-06-10T08:13:03,42.805,6.029,0.033,-0.011,0.012,102.0,103.0,101.0,13.4,1505.2,328.0,-0.8,1.8,2471.374,13.28,0.034,108.4
2023-06-10T08:16:03,42.805,6.029,0.052,-0.025,-0.02,102.0,104.0,101.0,13.3,1505.2,340.8,-0.7,1.8,2471.347,13.29,0.057,115.7
2023-06-10T08:19:03,42.805,6.029,0.047,-0.004,-0.023,102.0,103.0,101.0,13.4,1505.2,330.8,-0.8,1.8,2471.377,13.29,0.047,94.9
2023-06-10T08:22:03,42.805,6.029,0.023,0.0,0.008,102.0,103.0,101.0,13.4,1505.2,349.1,-0.8,1.8,2471.341,13.29,0.023,90.0
2023-06-10T08:25:03,42.805,6.029,0.05,-0.024,-0.01,103.0,104.0,101.0,13.3,1505.2,344.4,-0.8,1.8,2471.361,13.29,0.055,115.6
2023-06-10T08:28:03,42.805,6.029,0.029,0.005,0.033,102.0,103.0,101.0,13.4,1505.2,329.0,-0.8,1.8,2471.356,13.29,0.029,80.2
2023-06-10T08:31:03,42.805,6.029,0.018,0.004,-0.031,102.0,103.0,101.0,13.4,1505.2,329.4,-0.8,1.8,2471.355,13.29,0.018,77.5
2023-06-10T08:34:03,42.805,6.029,0.047,-0.039,-0.015,103.0,103.0,101.0,13.3,1505.2,350.1,-0.8,1.8,2471.363,13.29,0.061,129.7
2023-06-10T08:37:03,42.805,6.029,0.006,0.003,-0.038,103.0,103.0,101.0,13.4,1505.2,329.8,-0.8,1.8,2471.395,13.29,0.006,63.4
2023-06-10T08:40:03,42.805,6.029,0.032,-0.02,-0.002,103.0,103.0,101.0,13.3,1505.2,336.1,-0.7,1.8,2471.372,13.29,0.037,122.0
2023-06-10T08:43:03,42.805,6.029,0.048,-0.014,0.003,102.0,104.0,101.0,13.3,1505.2,340.5,-0.8,1.8,2471.294,13.29,0.05,106.3
2023-06-10T08:46:03,42.805,6.029,0.05,-0.005,-0.011,102.0,103.0,101.0,13.4,1505.2,336.6,-0.8,1.8,2471.36,13.29,0.05,95.7
2023-06-10T08:49:03,42.805,6.029,0.022,-0.005,-0.012,101.0,103.0,102.0,13.4,1505.2,333.0,-0.7,1.8,2471.319,13.29,0.022,102.8
2023-06-10T08:52:03,42.805,6.029,0.059,-0.013,0.007,100.0,106.0,101.0,13.4,1505.2,333.0,-0.8,1.8,2471.329,13.29,0.06,102.4
2023-06-10T08:55:03,42.805,6.029,0.048,-0.01,0.001,102.0,104.0,101.0,13.3,1505.2,338.2,-0.7,1.8,2471.368,13.29,0.049,101.8
2023-06-10T08:58:03,42.805,6.029,0.017,0.011,0.018,104.0,105.0,99.0,13.3,1505.2,326.3,-0.8,1.8,2471.361,13.29,0.02,57.1
2023-06-10T09:04:03,42.805,6.029,0.04,-0.015,-0.013,102.0,104.0,101.0,13.3,1505.2,347.0,-0.8,1.9,2471.365,13.28,0.042,110.6
2023-06-10T09:07:03,42.805,6.029,0.027,0.011,-0.009,103.0,105.0,100.0,13.3,1505.2,325.3,-0.8,1.8,2471.41,13.28,0.029,67.8
2023-06-10T09:10:03,42.805,6.029,0.05,0.0,0.005,103.0,104.0,101.0,13.3,1505.2,346.8,-0.8,1.8,2471.365,13.28,0.05,90.0
2023-06-10T09:13:03,42.805,6.029,0.027,-0.018,-0.037,102.0,103.0,101.0,13.3,1505.2,346.8,-0.8,1.8,2471.358,13.28,0.032,123.7
2023-06-10T09:16:03,42.805,6.029,0.057,-0.003,0.046,102.0,103.0,101.0,13.4,1505.2,338.6,-0.8,1.8,2471.335,13.28,0.057,93.0
2023-06-10T09:19:03,42.805,6.029,0.037,-0.018,0.0,102.0,103.0,101.0,13.4,1505.2,346.5,-0.8,1.8,2471.367,13.29,0.041,115.9
2023-06-10T09:22:03,42.805,6.029,0.025,-0.009,-0.002,102.0,104.0,101.0,13.4,1505.2,331.3,-0.8,1.8,2471.344,13.29,0.026,109.8
2023-06-10T09:25:03,42.805,6.029,0.04,0.016,0.022,102.0,104.0,101.0,13.3,1505.2,323.3,-0.8,1.8,2471.359,13.29,0.043,68.2
2023-06-10T09:28:03,42.805,6.029,0.029,-0.008,-0.017,102.0,104.0,101.0,13.3,1505.2,339.5,-0.8,1.8,2471.365,13.29,0.03,105.4
2023-06-10T09:31:03,42.805,6.029,0.038,-0.003,-0.017,102.0,103.0,101.0,13.4,1505.2,335.5,-0.7,1.8,2471.377,13.29,0.038,94.5
2023-06-10T09:34:03,42.805,6.029,0.034,0.002,0.012,101.0,104.0,101.0,13.3,1505.2,329.8,-0.7,1.8,2471.355,13.29,0.034,86.6
2023-06-10T09:37:03,42.805,6.029,0.051,0.002,0.027,102.0,103.0,101.0,13.3,1505.2,342.3,-0.8,1.8,2471.375,13.29,0.051,87.8
2023-06-10T09:40:03,42.805,6.029,0.018,-0.005,0.003,102.0,103.0,101.0,13.3,1505.2,329.4,-0.8,1.8,2471.347,13.29,0.018,105.5
2023-06-10T09:43:03,42.805,6.029,0.04,0.012,0.007,102.0,104.0,101.0,13.4,1505.2,346.8,-0.8,1.8,2471.382,13.29,0.041,73.3
2023-06-10T09:46:03,42.805,6.029,0.052,-0.023,-0.006,102.0,103.0,101.0,13.3,1505.2,327.9,-0.8,1.8,2471.383,13.29,0.056,113.9
2023-06-10T09:49:03,42.805,6.029,0.033,0.017,-0.002,102.0,103.0,101.0,13.4,1505.2,335.0,-0.8,1.8,2471.399,13.29,0.037,62.7
2023-06-10T09:52:03,42.805,6.029,0.04,-0.012,0.02,102.0,103.0,101.0,13.4,1505.2,325.7,-0.8,1.8,2471.377,13.29,0.041,106.7
2023-06-10T09:55:03,42.805,6.029,0.035,-0.012,0.015,103.0,104.0,101.0,13.3,1505.2,342.5,-0.8,1.8,2471.346,13.29,0.037,108.9
2023-06-10T09:58:03,42.805,6.029,0.037,-0.006,0.021,103.0,103.0,101.0,13.4,1505.2,322.9,-0.8,1.9,2471.37,13.29,0.037,99.2
2023-06-10T10:04:03,42.805,6.029,0.067,-0.009,0.033,104.0,104.0,100.0,13.4,1505.2,333.9,-0.8,1.8,2471.403,13.28,0.067,97.7